Track COSMOS 2477 (GLONASS) now! COSMOS 2477 (GLONASS) is classified as:
1 37868U 11064B 25182.44003360 -.00000038 00000-0 00000-0 0 9994 2 37868 65.0763 84.8067 0019340 238.9435 304.3503 2.13103130106284